Location: Llama
(1.1225°N, 10.5861°E)
Time: 21:27:36
(UTC+00:00)

Daily predictions for brighter satellites

Satellite Brightness Start Highest point End
(mag) Time Altitude Azimuth Time Altitude Azimuth Time Altitude Azimuth
Ariane H10+ 2.2 17:17:23 10° WNW 17:20:50 69° N 17:30:51 10° E
AQUARIUS 4.3 17:19:54 10° S 17:24:24 81° WSW 17:28:53 10° NNW
COSMO-SKYMED 1 4.0 17:21:45 10° N 17:25:50 42° WNW 17:29:56 10° SSW
Sea Lan Dem Rocket 2.2 17:23:04 10° W 17:27:19 67° S 17:31:04 10° E
Meteor 2-8 Rocket 4.4 17:21:20 10° S 17:27:24 77° E 17:33:28 10° N
Cosmos 1400 Rocket 3.2 17:25:59 10° S 17:30:04 71° W 17:34:10 10° N
MOS 1 Rocket 3.8 17:27:42 10° NNE 17:32:30 47° ESE 17:37:35 10° S
Okean-O 4.0 17:29:57 10° ESE 17:32:57 18° ENE 17:35:56 10° NE
Cosmos 1455 3.2 17:30:28 10° SSE 17:33:31 24° E 17:36:33 10° NE
Cosmos 1375 Rocket 4.5 17:27:37 10° N 17:33:51 63° ENE 17:40:02 10° SSE
Cosmos 1328 3.8 17:30:07 10° N 17:34:04 86° W 17:38:02 10° S
Cosmos 1825 Rocket 3.5 17:36:19 10° N 17:40:40 65° E 17:44:59 10° SSE
ARIANE 5 DEB (SYLDA) 3.0 17:38:48 10° W 17:44:04 74° S 17:45:48 17° E
Cosmos 2369 3.7 17:39:24 10° S 17:45:07 78° ESE 17:50:49 10° NNE
Meteor 2-1 Rocket 4.2 17:42:51 10° S 17:48:24 58° E 17:53:48 10° NNE
Meteor 2-21 Rocket 4.4 17:43:13 10° N 17:49:16 68° E 17:55:17 10° SSE
Delta 7925 Rocket 4.1 17:44:36 10° WSW 17:50:53 56° NNW 17:55:11 14° NE
CZ-2C R/B 4.0 17:49:59 10° SE 17:54:57 31° ENE 17:59:59 10° NNE
Cosmos 1315 Rocket 2.6 17:53:34 10° S 17:57:28 68° E 18:01:20 10° NNE
Cosmos 44 Rocket 3.6 17:57:44 10° SSW 18:02:17 62° WNW 18:06:54 10° NNE
Meteor 2-10 Rocket 3.8 17:57:04 10° S 18:02:46 78° W 18:08:13 10° N
SL-8 R/B 3.6 18:02:34 10° NW 18:07:21 89° WSW 18:12:09 10° SE
EO 1 Delta rocket 4.2 18:03:03 11° NNE 18:07:22 45° E 18:12:16 10° S
CZ-2D R/B 3.1 18:03:45 10° SSE 18:07:37 80° ENE 18:11:26 10° N
USA 229 DEB 4.0 18:01:21 10° NNW 18:09:06 89° WSW 18:16:53 10° SSE
HETE-2 4.5 18:04:58 10° W 18:09:07 86° N 18:10:45 36° E
USA 229 4.0 18:01:27 10° NNW 18:09:12 90° ENE 18:16:59 10° SSE
ARIANE 5 R/B 3.8 17:50:25 10° W 18:12:44 70° S 18:15:03 28° ESE
CSL-04 Rocket 4.4 18:08:12 10° SE 18:12:54 29° ENE 18:17:37 10° NNE
Cosmos 967 Rocket 4.5 18:08:02 10° SSW 18:14:24 67° ESE 18:19:17 18° NNE
deb Ariane 3.3 18:14:34 10° WSW 18:16:43 34° S 18:16:46 34° S
Cosmos 1244 Rocket 4.5 18:13:35 10° N 18:19:50 90° WNW 18:26:12 10° S
Cosmos 1697 Rocket 4.4 18:17:09 10° SW 18:22:05 32° WNW 18:27:02 10° NNW
NOSS 3-1 (A) 4.3 18:14:13 10° NNW 18:23:07 89° ENE 18:32:05 10° SSE
Cosmos 2315 Rocket 4.0 18:16:59 10° S 18:23:07 56° E 18:28:24 14° NNE
Helios 1A Rocket 3.3 18:21:05 10° S 18:25:13 65° WSW 18:29:18 10° NNW
Cosmos 883 Rocket 4.4 18:22:45 10° S 18:29:02 85° E 18:35:14 10° N
Ariane 3 Deb 4.4 17:44:41 10° W 18:29:44 90° SSE 18:33:01 38° E
CZ-2C R/B 2.5 18:25:43 16° NNE 18:30:04 79° ESE 18:35:20 10° S
ATLAS 3B CENTAUR R/B 4.5 18:26:56 10° SSW 18:32:27 24° SE 18:35:08 22° ESE
CZ-2C R/B 3.4 18:34:26 10° S 18:36:08 16° SSE 18:36:08 16° SSE
ARIANE 5 R/B 3.2 18:36:39 10° W 18:41:05 61° NNW 18:41:05 61° NNW
Cosmos 1980 Rocket 3.2 18:37:55 10° SSW 18:43:18 45° WNW 18:48:31 11° N
H-2A R/B 2.1 18:41:21 10° SSE 18:51:44 11° N 18:51:50 10° N
MAQSAT/ARIANE V 2.2 18:37:47 10° W 18:46:58 71° NW 18:46:58 71° NW
CSL-04 Debris 4.0 18:44:11 10° SSE 18:49:35 83° ENE 18:54:59 10° N
CZ-4 R/B 3.1 18:47:11 10° SSW 18:50:50 32° WSW 18:54:25 10° NW
YAOGAN 1 3.9 18:51:30 10° S 18:55:32 39° WSW 18:59:33 10° NNW
ARIANE 5 DEB (SYLDA) 3.4 18:53:14 10° W 18:56:31 46° WSW 18:56:31 46° WSW
Milstar 3 Cent rocket 3.4 18:45:53 10° WNW 18:58:22 66° SW 19:01:02 40° SSE
Spelda 4.0 18:57:59 10° W 19:01:20 32° WNW 19:01:20 32° WNW
Cosmos 2322 Rocket 4.1 19:07:34 10° S 19:09:04 18° S 19:09:04 18° S
ARIANE 5 DEB (SYLDA) 4.3 19:20:30 10° W 19:26:54 41° W 19:26:54 41° W
SL-16 R/B 4.3 19:41:12 10° SSW 19:43:00 20° SW 19:43:00 20° SW
ATLAS 2A CENTAUR R/B 4.4 19:12:37 10° WNW 20:02:05 63° SW 20:04:35 55° S
